Time,TemperatureF,DewpointF,PressureIn,WindDirection,WindDirectionDegrees,WindSpeedMPH,WindSpeedGustMPH,Humidity,HourlyPrecipIn,Conditions,Clouds,dailyrainin,SoftwareType,DateUTC
2013-04-19 00:03:00,33.0,30.0,29.37,NNW,340,1.0,3.0,90,0.00,,,0.30,,2013-04-19 04:03:00,
2013-04-19 00:13:00,33.0,30.0,29.37,NNW,340,1.0,3.0,90,0.00,,,0.30,,2013-04-19 04:13:00,
2013-04-19 00:23:00,33.0,30.0,29.36,North,357,3.0,3.0,90,0.00,,,0.30,,2013-04-19 04:23:00,
2013-04-19 00:33:00,33.0,30.0,29.35,North,4,4.0,5.0,90,0.00,,,0.30,,2013-04-19 04:33:00,
2013-04-19 00:43:00,33.0,30.0,29.32,NNW,338,3.0,5.0,90,0.00,,,0.30,,2013-04-19 04:43:00,
2013-04-19 00:52:00,33.0,30.0,29.32,NNW,338,3.0,5.0,90,0.00,,,0.30,,2013-04-19 04:52:00,
2013-04-19 01:03:00,33.0,30.0,29.31,North,0,3.0,5.0,90,0.00,,,0.30,,2013-04-19 05:03:00,
2013-04-19 01:11:00,33.0,30.0,29.31,North,0,3.0,5.0,90,0.00,,,0.30,,2013-04-19 05:11:00,
2013-04-19 01:22:00,33.0,30.0,29.30,West,270,3.0,5.0,90,0.00,,,0.30,,2013-04-19 05:22:00,
2013-04-19 01:32:00,33.0,30.0,29.29,NNW,345,1.0,13.0,90,0.00,,,0.30,,2013-04-19 05:32:00,
2013-04-19 01:42:00,33.0,30.0,29.29,NNW,345,1.0,13.0,90,0.00,,,0.30,,2013-04-19 05:42:00,
2013-04-19 01:52:00,33.0,30.0,29.28,North,8,1.0,8.0,90,0.00,,,0.30,,2013-04-19 05:52:00,
2013-04-19 02:01:00,33.0,30.0,29.27,NNW,338,2.0,5.0,90,0.00,,,0.30,,2013-04-19 06:01:00,
2013-04-19 02:11:00,33.0,30.0,29.27,NNW,338,2.0,5.0,90,0.00,,,0.30,,2013-04-19 06:11:00,
2013-04-19 02:22:00,33.0,30.0,29.26,NNE,28,3.0,12.0,90,0.00,,,0.30,,2013-04-19 06:22:00,
2013-04-19 02:32:00,33.0,30.0,29.24,South,173,2.0,12.0,90,0.00,,,0.30,,2013-04-19 06:32:00,
2013-04-19 02:42:00,33.0,30.0,29.24,South,173,2.0,12.0,90,0.00,,,0.30,,2013-04-19 06:42:00,
2013-04-19 02:53:00,33.0,30.0,29.22,ENE,64,5.0,9.0,90,0.00,,,0.30,,2013-04-19 06:53:00,
2013-04-19 03:02:00,33.0,31.0,29.21,ENE,67,3.0,7.0,91,0.00,,,0.30,,2013-04-19 07:02:00,
2013-04-19 03:12:00,33.0,31.0,29.21,NNE,22,2.0,7.0,91,0.00,,,0.30,,2013-04-19 07:12:00,
2013-04-19 03:21:00,33.0,31.0,29.21,NNE,22,2.0,7.0,91,0.00,,,0.30,,2013-04-19 07:21:00,
2013-04-19 03:32:00,33.0,31.0,29.20,West,260,1.0,5.0,91,0.00,,,0.30,,2013-04-19 07:32:00,
2013-04-19 03:42:00,33.0,31.0,29.20,West,260,1.0,5.0,91,0.00,,,0.30,,2013-04-19 07:42:00,
2013-04-19 03:52:00,33.0,31.0,29.18,NNW,338,2.0,6.0,91,0.00,,,0.30,,2013-04-19 07:52:00,
2013-04-19 04:02:00,32.0,30.0,29.18,NE,45,5.0,5.0,91,0.00,,,0.30,,2013-04-19 08:02:00,
2013-04-19 04:12:00,32.0,30.0,29.18,North,0,3.0,6.0,91,0.00,,,0.30,,2013-04-19 08:12:00,
2013-04-19 04:21:00,32.0,30.0,29.18,North,0,3.0,6.0,91,0.00,,,0.30,,2013-04-19 08:21:00,
2013-04-19 04:32:00,32.0,30.0,29.15,NW,320,3.0,6.0,91,0.00,,,0.30,,2013-04-19 08:32:00,
2013-04-19 04:42:00,32.0,30.0,29.15,NW,315,5.0,6.0,91,0.00,,,0.30,,2013-04-19 08:42:00,
2013-04-19 04:52:00,32.0,30.0,29.15,NW,315,5.0,6.0,91,0.00,,,0.30,,2013-04-19 08:52:00,
2013-04-19 05:01:00,32.0,30.0,29.13,NNE,28,2.0,5.0,91,0.00,,,0.30,,2013-04-19 09:01:00,
2013-04-19 05:11:00,32.0,30.0,29.13,NNE,28,2.0,5.0,91,0.00,,,0.30,,2013-04-19 09:11:00,
2013-04-19 05:21:00,32.0,30.0,29.11,SE,135,0.0,1.0,91,0.00,,,0.30,,2013-04-19 09:21:00,
2013-04-19 05:32:00,32.0,30.0,29.10,NNE,29,1.0,1.0,91,0.00,,,0.30,,2013-04-19 09:32:00,
2013-04-19 05:42:00,32.0,30.0,29.10,NNE,29,1.0,1.0,91,0.00,,,0.30,,2013-04-19 09:42:00,
2013-04-19 05:52:00,32.0,30.0,29.09,NNW,338,0.0,1.0,91,0.00,,,0.30,,2013-04-19 09:52:00,
2013-04-19 06:02:00,32.0,29.0,29.07,WNW,292,0.0,1.0,90,0.00,,,0.30,,2013-04-19 10:02:00,
2013-04-19 06:13:00,32.0,29.0,29.07,WNW,286,1.0,1.0,90,0.00,,,0.30,,2013-04-19 10:13:00,
2013-04-19 06:23:00,32.0,29.0,29.07,WNW,286,1.0,1.0,90,0.00,,,0.30,,2013-04-19 10:23:00,
2013-04-19 06:33:00,32.0,29.0,29.06,West,270,0.0,1.0,90,0.00,,,0.30,,2013-04-19 10:33:00,
2013-04-19 06:42:00,32.0,29.0,29.05,WSW,248,1.0,2.0,90,0.00,,,0.30,,2013-04-19 10:42:00,
2013-04-19 06:52:00,32.0,29.0,29.05,WSW,248,1.0,2.0,90,0.00,,,0.30,,2013-04-19 10:52:00,
2013-04-19 07:02:00,32.0,29.0,29.05,SW,225,1.0,2.0,90,0.00,,,0.30,,2013-04-19 11:02:00,
2013-04-19 07:11:00,32.0,29.0,29.05,SW,225,1.0,2.0,90,0.00,,,0.30,,2013-04-19 11:11:00,
2013-04-19 07:22:00,32.0,29.0,29.04,West,275,0.0,2.0,90,0.00,,,0.30,,2013-04-19 11:22:00,
2013-04-19 07:32:00,32.0,29.0,29.05,WSW,248,0.0,1.0,90,0.00,,,0.30,,2013-04-19 11:32:00,
2013-04-19 07:42:00,32.0,29.0,29.05,WSW,248,0.0,1.0,90,0.00,,,0.30,,2013-04-19 11:42:00,
2013-04-19 07:52:00,32.0,30.0,29.05,SW,225,0.0,1.0,91,0.00,,,0.30,,2013-04-19 11:52:00,
2013-04-19 08:02:00,33.0,31.0,29.05,SW,225,0.0,1.0,91,0.00,,,0.30,,2013-04-19 12:02:00,
2013-04-19 08:12:00,33.0,31.0,29.05,WSW,248,1.0,3.0,91,0.00,,,0.30,,2013-04-19 12:12:00,
2013-04-19 08:22:00,33.0,31.0,29.05,WSW,248,1.0,3.0,91,0.00,,,0.30,,2013-04-19 12:22:00,
2013-04-19 08:32:00,33.0,31.0,29.05,WSW,248,0.0,1.0,91,0.00,,,0.30,,2013-04-19 12:32:00,
2013-04-19 08:42:00,33.0,31.0,29.05,WSW,248,0.0,1.0,91,0.00,,,0.30,,2013-04-19 12:42:00,
2013-04-19 08:53:00,33.0,31.0,29.04,WSW,248,1.0,13.0,91,0.78,,,1.08,,2013-04-19 12:53:00,
2013-04-19 09:01:00,33.0,31.0,29.04,West,270,1.0,38.0,91,0.78,,,1.08,,2013-04-19 13:01:00,
2013-04-19 09:11:00,33.0,30.0,29.04,WSW,248,0.0,6.0,90,0.78,,,1.08,,2013-04-19 13:11:00,
2013-04-19 09:21:00,33.0,30.0,29.04,WSW,248,0.0,6.0,90,0.78,,,1.08,,2013-04-19 13:21:00,
2013-04-19 09:32:00,33.0,30.0,29.05,WNW,287,4.0,8.0,90,0.78,,,1.08,,2013-04-19 13:32:00,
2013-04-19 09:42:00,33.0,30.0,29.05,WNW,287,4.0,8.0,90,0.78,,,1.08,,2013-04-19 13:42:00,
2013-04-19 09:52:00,32.0,29.0,29.04,WSW,245,0.0,0.0,90,0.00,,,1.08,,2013-04-19 13:52:00,
2013-04-19 10:01:00,32.0,29.0,29.03,West,275,0.0,0.0,89,0.00,,,1.08,,2013-04-19 14:01:00,
2013-04-19 10:11:00,33.0,30.0,29.03,WNW,296,0.0,0.0,89,0.00,,,1.08,,2013-04-19 14:11:00,
2013-04-19 10:22:00,33.0,30.0,29.03,WNW,296,0.0,0.0,89,0.00,,,1.08,,2013-04-19 14:22:00,
2013-04-19 10:32:00,33.0,30.0,29.03,WNW,292,0.0,0.0,88,0.00,,,1.08,,2013-04-19 14:32:00,
2013-04-19 10:42:00,33.0,30.0,29.03,WNW,292,0.0,0.0,88,0.00,,,1.08,,2013-04-19 14:42:00,
2013-04-19 10:52:00,33.0,30.0,29.03,West,270,0.0,0.0,87,0.00,,,1.08,,2013-04-19 14:52:00,
2013-04-19 11:01:00,34.0,30.0,29.03,West,270,0.0,0.0,86,0.00,,,0.86,,2013-04-19 15:01:00,
2013-04-19 11:12:00,34.0,30.0,29.02,WSW,257,0.0,0.0,85,0.00,,,0.86,,2013-04-19 15:12:00,
2013-04-19 11:21:00,34.0,30.0,29.02,WSW,257,0.0,0.0,85,0.00,,,0.86,,2013-04-19 15:21:00,
2013-04-19 11:33:00,35.0,31.0,29.02,West,270,0.0,0.0,84,0.00,,,0.86,,2013-04-19 15:33:00,
2013-04-19 11:43:00,35.0,31.0,29.02,West,270,0.0,0.0,84,0.00,,,0.86,,2013-04-19 15:43:00,
2013-04-19 11:52:00,35.0,30.0,29.00,WSW,250,0.0,0.0,83,0.00,,,0.86,,2013-04-19 15:52:00,
2013-04-19 12:03:00,35.0,30.0,29.00,North,349,2.0,2.0,83,0.00,,,0.86,,2013-04-19 16:03:00,
2013-04-19 12:12:00,35.0,30.0,29.00,West,264,3.0,9.0,82,0.00,,,0.86,,2013-04-19 16:12:00,
2013-04-19 12:23:00,35.0,30.0,29.00,West,264,3.0,9.0,82,0.00,,,0.86,,2013-04-19 16:23:00,
2013-04-19 12:32:00,34.0,29.0,28.99,West,269,0.0,9.0,83,0.00,,,0.86,,2013-04-19 16:32:00,
2013-04-19 12:42:00,34.0,29.0,28.99,WNW,292,0.0,0.0,83,0.00,,,0.86,,2013-04-19 16:42:00,
2013-04-19 12:53:00,34.0,29.0,28.99,WNW,292,0.0,0.0,83,0.00,,,0.86,,2013-04-19 16:53:00,
2013-04-19 13:02:00,33.0,29.0,28.99,West,270,0.0,0.0,84,0.00,,,0.86,,2013-04-19 17:02:00,
2013-04-19 13:12:00,33.0,29.0,28.99,West,270,0.0,0.0,84,0.00,,,0.86,,2013-04-19 17:12:00,
2013-04-19 13:21:00,33.0,29.0,28.99,WNW,282,0.0,0.0,84,0.00,,,0.86,,2013-04-19 17:21:00,
2013-04-19 13:33:00,32.0,28.0,28.99,West,267,0.0,0.0,85,0.00,,,0.86,,2013-04-19 17:33:00,
2013-04-19 13:42:00,32.0,28.0,28.99,West,267,0.0,0.0,85,0.00,,,0.86,,2013-04-19 17:42:00,
2013-04-19 13:52:00,32.0,28.0,29.00,West,271,0.0,0.0,86,0.00,,,0.86,,2013-04-19 17:52:00,
2013-04-19 14:02:00,32.0,29.0,29.02,NW,315,0.0,0.0,87,0.00,,,0.86,,2013-04-19 18:02:00,
2013-04-19 14:13:00,32.0,29.0,29.02,NW,315,0.0,0.0,87,0.00,,,0.86,,2013-04-19 18:13:00,
2013-04-19 14:23:00,31.0,28.0,29.05,NW,323,0.0,0.0,87,0.00,,,0.86,,2013-04-19 18:23:00,
2013-04-19 14:33:00,31.0,28.0,29.06,NNW,338,0.0,0.0,88,0.00,,,0.86,,2013-04-19 18:33:00,
2013-04-19 14:42:00,31.0,28.0,29.06,NNW,338,0.0,0.0,88,0.00,,,0.86,,2013-04-19 18:42:00,
2013-04-19 14:52:00,30.0,27.0,29.09,West,270,0.0,0.0,88,0.00,,,0.78,,2013-04-19 18:52:00,
2013-04-19 15:01:00,30.0,27.0,29.12,WNW,292,0.0,0.0,88,0.00,,,0.78,,2013-04-19 19:01:00,
2013-04-19 15:11:00,30.0,27.0,29.12,WNW,292,0.0,0.0,88,0.00,,,0.78,,2013-04-19 19:11:00,
2013-04-19 15:21:00,29.0,26.0,29.15,West,269,0.0,0.0,88,0.00,,,0.78,,2013-04-19 19:21:00,
2013-04-19 15:32:00,29.0,26.0,29.18,NNW,338,0.0,0.0,88,0.00,,,0.78,,2013-04-19 19:32:00,
2013-04-19 15:42:00,29.0,26.0,29.18,NNW,338,0.0,0.0,88,0.00,,,0.78,,2013-04-19 19:42:00,
2013-04-19 15:52:00,28.0,25.0,29.21,NNW,338,0.0,0.0,88,0.00,,,0.78,,2013-04-19 19:52:00,
2013-04-19 16:02:00,28.0,25.0,29.23,WNW,292,0.0,0.0,88,0.00,,,0.78,,2013-04-19 20:02:00,
2013-04-19 16:11:00,28.0,25.0,29.23,WNW,292,0.0,0.0,88,0.00,,,0.78,,2013-04-19 20:11:00,
2013-04-19 16:22:00,27.0,24.0,29.26,NNW,338,0.0,0.0,87,0.00,,,0.78,,2013-04-19 20:22:00,
2013-04-19 16:32:00,26.0,23.0,29.28,West,270,0.0,0.0,87,0.00,,,0.78,,2013-04-19 20:32:00,
2013-04-19 16:42:00,26.0,23.0,29.31,West,270,0.0,0.0,87,0.00,,,0.78,,2013-04-19 20:42:00,
2013-04-19 16:52:00,26.0,23.0,29.31,West,270,0.0,0.0,87,0.00,,,0.78,,2013-04-19 20:52:00,
2013-04-19 17:01:00,26.0,23.0,29.33,NW,306,0.0,0.0,87,0.00,,,0.78,,2013-04-19 21:01:00,
2013-04-19 17:11:00,26.0,22.0,29.35,WNW,303,0.0,0.0,86,0.00,,,0.78,,2013-04-19 21:11:00,
2013-04-19 17:21:00,26.0,22.0,29.35,WNW,303,0.0,0.0,86,0.00,,,0.78,,2013-04-19 21:21:00,
2013-04-19 17:32:00,25.0,21.0,29.36,WNW,290,0.0,0.0,86,0.00,,,0.78,,2013-04-19 21:32:00,
2013-04-19 17:42:00,25.0,21.0,29.36,WNW,290,0.0,0.0,86,0.00,,,0.78,,2013-04-19 21:42:00,
2013-04-19 17:53:00,25.0,21.0,29.39,WNW,292,0.0,0.0,86,0.00,,,0.78,,2013-04-19 21:53:00,
2013-04-19 18:02:00,24.0,20.0,29.41,NW,305,0.0,0.0,85,0.00,,,0.78,,2013-04-19 22:02:00,
2013-04-19 18:12:00,24.0,20.0,29.43,NW,315,0.0,0.0,85,0.00,,,0.78,,2013-04-19 22:12:00,
2013-04-19 18:22:00,24.0,20.0,29.43,NW,315,0.0,0.0,85,0.00,,,0.78,,2013-04-19 22:22:00,
2013-04-19 18:33:00,23.0,19.0,29.44,NW,312,0.0,0.0,84,0.00,,,0.78,,2013-04-19 22:33:00,
2013-04-19 18:42:00,23.0,19.0,29.44,NW,312,0.0,0.0,84,0.00,,,0.78,,2013-04-19 22:42:00,
2013-04-19 18:52:00,23.0,19.0,29.46,NNW,338,0.0,0.0,85,0.00,,,0.78,,2013-04-19 22:52:00,
2013-04-19 19:02:00,23.0,19.0,29.48,NNW,330,0.0,0.0,85,0.00,,,0.78,,2013-04-19 23:02:00,
2013-04-19 19:11:00,23.0,19.0,29.48,NNW,330,0.0,0.0,85,0.00,,,0.78,,2013-04-19 23:11:00,
2013-04-19 19:22:00,23.0,19.0,29.49,NNW,338,0.0,0.0,84,0.00,,,0.78,,2013-04-19 23:22:00,
2013-04-19 19:32:00,22.0,18.0,29.51,WNW,292,0.0,0.0,84,0.00,,,0.78,,2013-04-19 23:32:00,
2013-04-19 19:42:00,22.0,18.0,29.51,WNW,292,0.0,0.0,84,0.00,,,0.78,,2013-04-19 23:42:00,
2013-04-19 19:52:00,23.0,19.0,29.52,WNW,287,0.0,0.0,86,0.00,,,0.78,,2013-04-19 23:52:00,
2013-04-19 20:02:00,22.0,18.0,29.53,NNW,338,0.0,0.0,86,0.00,,,0.78,,2013-04-20 00:02:00,
2013-04-19 20:12:00,22.0,18.0,29.53,NNW,338,0.0,0.0,86,0.00,,,0.78,,2013-04-20 00:12:00,
2013-04-19 20:21:00,22.0,18.0,29.55,NW,315,0.0,0.0,85,0.00,,,0.78,,2013-04-20 00:21:00,
2013-04-19 20:32:00,22.0,18.0,29.56,West,274,0.0,0.0,85,0.00,,,0.78,,2013-04-20 00:32:00,
2013-04-19 20:41:00,22.0,18.0,29.56,West,274,0.0,0.0,85,0.00,,,0.78,,2013-04-20 00:41:00,
2013-04-19 20:52:00,22.0,18.0,29.57,WNW,292,0.0,0.0,85,0.00,,,0.78,,2013-04-20 00:52:00,
2013-04-19 21:01:00,22.0,18.0,29.59,NW,315,0.0,0.0,86,0.00,,,0.78,,2013-04-20 01:01:00,
2013-04-19 21:11:00,22.0,18.0,29.59,NW,315,0.0,0.0,86,0.00,,,0.78,,2013-04-20 01:11:00,
2013-04-19 21:21:00,22.0,18.0,29.60,WNW,294,0.0,0.0,86,0.00,,,0.78,,2013-04-20 01:21:00,
2013-04-19 21:32:00,22.0,18.0,29.61,WNW,292,0.0,0.0,86,0.00,,,0.78,,2013-04-20 01:32:00,
2013-04-19 21:42:00,22.0,18.0,29.61,WNW,292,0.0,0.0,86,0.00,,,0.78,,2013-04-20 01:42:00,
2013-04-19 21:52:00,22.0,18.0,29.62,West,273,0.0,0.0,86,0.00,,,0.78,,2013-04-20 01:52:00,
2013-04-19 22:01:00,22.0,18.0,29.63,WNW,295,0.0,0.0,85,0.00,,,0.78,,2013-04-20 02:01:00,
2013-04-19 22:11:00,22.0,18.0,29.64,NW,315,0.0,0.0,85,0.00,,,0.78,,2013-04-20 02:11:00,
2013-04-19 22:21:00,22.0,18.0,29.64,NW,315,0.0,0.0,85,0.00,,,0.78,,2013-04-20 02:21:00,
2013-04-19 22:32:00,22.0,18.0,29.65,NW,315,0.0,0.0,84,0.00,,,0.78,,2013-04-20 02:32:00,
2013-04-19 22:42:00,22.0,18.0,29.65,NW,315,0.0,0.0,84,0.00,,,0.78,,2013-04-20 02:42:00,
2013-04-19 22:52:00,22.0,18.0,29.65,WNW,297,0.0,0.0,84,0.00,,,0.78,,2013-04-20 02:52:00,
2013-04-19 23:01:00,22.0,18.0,29.66,NW,315,0.0,0.0,85,0.00,,,0.78,,2013-04-20 03:01:00,
2013-04-19 23:11:00,22.0,18.0,29.67,WNW,292,0.0,0.0,85,0.00,,,0.78,,2013-04-20 03:11:00,
2013-04-19 23:21:00,22.0,18.0,29.67,WNW,292,0.0,0.0,85,0.00,,,0.78,,2013-04-20 03:21:00,
2013-04-19 23:33:00,22.0,18.0,29.68,WNW,289,0.0,0.0,85,0.00,,,0.78,,2013-04-20 03:33:00,
2013-04-19 23:43:00,22.0,18.0,29.70,WNW,296,0.0,0.0,85,0.00,,,0.78,,2013-04-20 03:43:00,
2013-04-19 23:53:00,22.0,18.0,29.70,WNW,296,0.0,0.0,85,0.00,,,0.78,,2013-04-20 03:53:00,